Weather History for Milton, FL

Change the Weather History Date:

Sunday, February 24, 2013

  Actual Average (KNSE) Record (KNSE)
Temperature  
Mean Temperature 62 °F -  
Max Temperature 72 °F 64 °F 82 °F (2012)
Min Temperature 52 °F 46 °F 37 °F (2008)
Degree Days  
Heating Degree Days 3    
Growing Degree Days 12 (Base 50)    
Moisture  
Dew Point 50 °F    
Average Humidity 74    
Maximum Humidity 94    
Minimum Humidity 39    
Precipitation  
Precipitation 0.00 in - - ()
Sea Level Pressure  
Sea Level Pressure 29.92 in    
Wind  
Wind Speed 7 mph (NE)    
Max Wind Speed 12 mph    
Max Gust Speed -    
Visibility 9 miles    
Events Rain    
Averages and records for this station are not official NWS values.
T = Trace of Precipitation, MM = Missing Value Source: NWS Daily Summary

Daily Weather History Graph

Daily Weather History Graph

Search for Another Location

Airport:

Trip Planner

Search our weather history database for the weather conditions in past years. The results will help you decide how hot, cold, wet, or windy it might be!

Date:

Astronomy

Feb. 24, 2013 Rise Set
Actual Time 6:19 AM CST 5:43 PM CST
Civil Twilight 5:55 AM CST 6:07 PM CST
Nautical Twilight 5:27 AM CST 6:35 PM CST
Astronomical Twilight 4:59 AM CST 7:03 PM CST
Moon 4:53 PM CST (2/24) 5:14 AM CST (2/24)
Length of Visible Light 12h 12m
Length of Day
11h 23m
Waxing Gibbous, 99% of the Moon is Illuminated
Feb 24
Waxing Gibbous
Feb 25
Full
Mar 4
Last Quarter
Mar 11
New
Mar 19
First Quarter

Hourly Weather History & Observations

Time (CST) Temp. Dew Point Humidity Pressure Visibility Wind Dir Wind Speed Gust Speed Precip Events Conditions
12:25 AM 55.4 °F 51.8 °F 88% 29.96 in 10.0 mi North 6.9 mph - N/A   Overcast
12:48 AM 55.4 °F 51.8 °F 88% 29.96 in 10.0 mi North 8.1 mph - N/A   Overcast
12:56 AM 55.9 °F 52.0 °F 87% 29.92 in 10.0 mi NNE 9.2 mph - N/A   Overcast
1:23 AM 55.4 °F 51.8 °F 88% 29.95 in 10.0 mi NNE 5.8 mph - N/A   Overcast
1:56 AM 55.0 °F 52.0 °F 89% 29.91 in 10.0 mi North 3.5 mph - N/A   Mostly Cloudy
2:10 AM 55.4 °F 51.8 °F 88% 29.94 in 10.0 mi NNE 3.5 mph - N/A   Scattered Clouds
2:20 AM 55.4 °F 51.8 °F 88% 29.94 in 10.0 mi NE 6.9 mph - N/A   Mostly Cloudy
2:56 AM 54.0 °F 52.0 °F 93% 29.90 in 10.0 mi NNE 4.6 mph - N/A   Mostly Cloudy
3:12 AM 53.6 °F 51.8 °F 94% 29.94 in 10.0 mi NNE 4.6 mph - N/A   Scattered Clouds
3:56 AM 53.1 °F 50.0 °F 89% 29.90 in 10.0 mi North 5.8 mph - N/A   Clear
4:03 AM 53.6 °F 51.8 °F 94% 29.94 in 10.0 mi North 5.8 mph - N/A   Scattered Clouds
4:12 AM 53.6 °F 51.8 °F 94% 29.94 in 3.0 mi North 6.9 mph - N/A   Mostly Cloudy
4:16 AM 53.6 °F 51.8 °F 94% 29.94 in 1.8 mi North 6.9 mph - N/A   Mostly Cloudy
4:42 AM 53.6 °F 51.8 °F 94% 29.94 in 3.0 mi NNE 6.9 mph - N/A   Overcast
4:56 AM 53.1 °F 51.1 °F 93% 29.91 in 7.0 mi NNE 6.9 mph - N/A   Overcast
5:56 AM 53.1 °F 51.1 °F 93% 29.93 in 10.0 mi NNE 9.2 mph - N/A   Overcast
6:56 AM 52.0 °F 48.9 °F 89% 29.94 in 10.0 mi NNE 11.5 mph - N/A   Overcast
7:17 AM 53.6 °F 48.2 °F 82% 29.98 in 10.0 mi NE 8.1 mph - N/A   Mostly Cloudy
7:56 AM 55.0 °F 50.0 °F 83% 29.96 in 10.0 mi NE 8.1 mph - N/A   Scattered Clouds
8:56 AM 59.0 °F 51.1 °F 75% 29.96 in 10.0 mi ENE 8.1 mph - N/A   Clear
9:56 AM 63.0 °F 51.1 °F 65% 29.96 in 10.0 mi ENE 9.2 mph - N/A   Clear
10:56 AM 68.0 °F 48.9 °F 50% 29.95 in 10.0 mi ENE 8.1 mph - N/A   Clear
11:56 AM 70.0 °F 46.0 °F 42% 29.92 in 10.0 mi East 5.8 mph - N/A   Clear
12:56 PM 72.0 °F 46.9 °F 41% 29.91 in 10.0 mi East 8.1 mph - N/A   Clear
1:56 PM 71.1 °F 46.0 °F 41% 29.88 in 10.0 mi ESE 9.2 mph - N/A   Overcast
2:56 PM 71.1 °F 45.0 °F 39% 29.87 in 10.0 mi East 9.2 mph - N/A   Overcast
3:56 PM 71.1 °F 45.0 °F 39% 29.87 in 10.0 mi East 8.1 mph - N/A   Mostly Cloudy
4:56 PM 69.1 °F 46.9 °F 45% 29.87 in 10.0 mi ESE 4.6 mph - N/A   Mostly Cloudy
5:56 PM 66.9 °F 48.0 °F 51% 29.87 in 10.0 mi East 4.6 mph - N/A   Overcast
6:56 PM 66.0 °F 48.0 °F 52% 29.88 in 10.0 mi ESE 3.5 mph - N/A   Overcast
7:56 PM 64.9 °F 48.9 °F 56% 29.87 in 10.0 mi East 5.8 mph - N/A   Overcast
8:32 PM 64.4 °F 50.0 °F 59% 29.90 in 10.0 mi East 5.8 mph - N/A   Overcast
8:56 PM 63.0 °F 51.1 °F 65% 29.85 in 10.0 mi East 8.1 mph - 0.00 in Rain Light Rain